Location: Ku?niki
(51.4449°N, 17.8974°E)
Time: 21:40:15
(UTC+00:00)

POLYITAN 1 - Pass Details

Date: 07 July 2022
Orbit: 586 x 605 km, 98.0° (Epoch: 13 August)

Event Time Altitude Azimuth Distance (km) Brightness Sun altitude
Rises 00:38:52 0° 15° (NNE) 2,867 ? -12.4°
Reaches altitude 10° 00:41:04 10° 18° (NNE) 1,961 ? -12.3°
Maximum altitude 00:45:19 72° 103° (ESE) 641 ? -12.0°
Enters shadow 00:48:45 15° 187° (S) 1,624 ? -11.7°
